Theta_e
346 347 348 350 354 353 351 351 350 353 357 358 357 357 356 355 357 357 356 359 357 356 350 350 349 349 345 341 340 339 340 339 340
347 347 349 351 352 352 352 351 349 352 357 358 356 355 357 359 359 358 358 357 354 352 347 345 344 338 337 338 339 339 337 339 341
349 348 349 352 351 350 351 349 351 352 355 358 356 358 360 358 358 359 356 353 349 344 340 339 338 338 338 338 338 338 337 337 336
350 350 350 352 352 350 349 349 352 358 359 357 357 357 356 358 358 355 351 346 342 338 338 338 338 339 339 338 338 337 336 335 335
350 354 352 351 352 350 349 350 352 357 356 355 355 354 356 354 352 349 343 340 339 338 338 338 338 338 338 338 337 336 335 336 336
356 355 355 352 351 353 350 351 352 356 356 355 357 358 357 353 349 343 339 338 337 337 337 337 337 338 338 337 336 335 334 335 334
352 356 358 354 352 354 352 354 354 358 357 354 359 357 356 351 344 340 339 337 336 336 336 336 337 337 337 337 335 335 333 333 333
350 356 355 356 355 356 356 357 357 355 352 352 358 356 356 348 343 339 338 336 335 336 336 337 337 337 336 335 334 333 334 330 333
349 356 357 357 358 360 359 359 361 354 353 357 358 357 354 345 341 339 337 336 335 336 336 336 336 336 336 335 333 329 327 325 325
343 356 357 359 359 361 359 361 361 362 359 359 357 355 350 345 343 340 337 336 336 336 336 336 335 335 335 334 336 332 330 326 325
344 350 360 361 360 360 360 360 360 360 359 356 355 355 347 345 342 341 339 336 336 336 336 335 335 334 333 332 333 333 331 330 327
350 351 352 361 358 361 362 362 363 361 357 355 355 350 346 344 342 341 340 338 336 336 335 334 334 334 331 332 332 332 330 330 328
349 348 348 359 357 360 364 366 362 360 357 354 351 347 345 343 341 342 341 339 337 336 335 333 333 332 330 332 331 331 329 329 327
354 355 357 358 359 363 365 362 360 357 354 352 349 345 344 342 342 342 341 341 338 335 334 333 333 333 330 330 330 328 327 327 319
363 364 359 360 356 355 355 357 357 354 351 348 345 344 344 343 343 341 341 339 336 335 334 333 332 332 330 331 330 326 323 315 312
358 360 359 353 354 353 353 340 351 349 346 344 343 343 344 344 342 340 340 338 336 336 334 332 331 331 332 331 332 328 325 320 317
355 357 356 352 350 347 346 343 344 343 343 344 343 343 342 343 344 342 339 336 336 335 332 331 332 329 328 327 330 330 325 320 319
354 354 356 354 350 347 344 342 337 340 340 342 342 343 343 345 343 339 338 337 333 331 329 328 326 327 328 328 328 322 323 323 323
350 347 350 350 346 345 342 340 343 344 342 341 343 344 344 343 339 338 336 333 333 330 326 324 322 320 321 321 322 321 320 320 321
348 346 347 348 347 346 346 346 345 343 343 342 343 342 338 334 332 328 328 328 328 328 327 326 324 322 321 318 316 318 317 318 319
Wind_Speed
9 11 14 16 15 18 18 18 17 18 19 16 14 12 10 8 8 7 4 2 2 2 2 2 4 4 4 5 6 6 6 7 5
11 9 15 16 16 19 20 20 17 18 21 17 16 14 14 11 8 3 6 7 2 4 2 3 3 2 4 5 6 7 7 8 7
11 12 13 15 14 21 21 21 19 19 19 17 18 18 15 11 9 11 7 6 4 5 3 2 3 2 2 3 5 7 8 7 9
14 14 13 13 13 21 21 20 21 22 21 19 18 18 13 16 11 8 8 6 4 4 4 3 2 2 1 3 4 6 7 8 6
16 16 14 13 14 20 21 22 21 22 21 21 16 18 13 15 13 11 9 7 6 5 4 3 3 2 1 1 3 6 6 7 6
14 15 15 14 14 15 20 22 23 22 21 19 19 22 17 15 13 12 11 9 8 7 6 4 4 3 2 1 1 2 4 6 7
14 13 14 14 14 13 19 22 24 21 21 22 22 19 18 18 16 14 12 11 9 7 6 6 5 4 3 2 2 1 2 4 6
11 14 15 13 14 14 18 20 22 24 18 21 20 19 19 19 16 15 15 11 10 8 6 5 4 3 2 2 4 3 6 2 5
7 13 12 14 12 16 20 22 22 25 23 24 22 20 19 18 17 14 12 10 9 8 6 5 3 3 4 3 1 1 3 3 4
5 12 14 14 15 17 22 24 24 23 21 22 19 18 18 18 14 13 11 9 8 6 4 4 4 4 5 4 5 5 5 6 6
8 6 14 15 13 20 26 27 24 22 22 19 19 17 18 16 14 11 10 8 6 5 5 5 5 4 4 6 6 8 7 8 9
8 10 8 16 24 25 28 27 30 26 24 21 21 20 19 17 15 14 12 9 7 6 6 5 6 6 5 6 8 8 7 7 7
8 10 16 23 26 29 28 28 32 28 24 24 19 20 18 16 14 12 10 7 7 6 5 5 6 4 5 6 5 7 7 7 7
8 8 2 18 24 30 32 37 33 29 30 25 22 18 16 15 13 11 10 9 8 7 5 6 3 5 7 8 8 8 7 7 7
15 14 15 23 18 16 24 29 33 24 20 25 23 20 14 12 11 11 10 9 8 6 5 6 9 9 11 14 17 14 8 4 5
5 7 17 23 17 21 31 13 23 22 26 25 24 24 22 14 9 7 8 9 8 6 8 8 10 13 16 17 19 16 12 8 5
5 13 17 21 22 17 26 37 24 13 18 24 23 14 16 13 11 10 8 8 6 9 8 12 16 11 11 10 11 18 18 15 10
11 13 10 12 17 15 20 26 25 27 22 17 18 12 12 12 11 13 11 8 7 9 9 7 9 9 9 9 7 5 5 11 10
2 6 11 11 10 12 9 9 11 14 14 17 17 15 10 12 9 15 12 9 11 14 13 12 11 11 16 17 13 11 12 12 11
16 13 7 10 12 13 13 13 12 13 14 12 9 8 5 2 5 9 7 5 7 10 11 15 17 18 15 13 15 17 16 13 13
Wind_Direction
140 148 140 150 150 148 152 156 168 165 165 179 188 194 203 198 200 221 195 192 157 117 45 62 51 12 1 5 5 11 354 355 2
152 155 132 140 150 148 152 160 164 159 161 177 188 185 186 181 186 179 151 128 133 149 126 49 107 31 16 18 19 20 17 14 33
142 131 137 142 155 158 159 166 160 156 165 173 185 178 169 178 175 147 135 145 112 105 93 81 81 62 39 29 27 24 25 14 354
151 143 150 151 156 157 165 166 162 156 170 177 190 175 173 160 153 151 156 147 141 134 139 120 96 72 59 43 24 19 11 359 6
146 142 152 157 156 154 164 166 166 167 178 176 180 160 167 146 151 160 151 149 154 157 147 150 142 126 101 45 23 8 4 7 359
129 143 152 162 163 162 168 169 169 173 183 171 161 155 157 153 161 166 159 161 164 166 164 163 158 155 187 244 343 14 10 20 4
147 152 155 168 172 165 173 170 167 170 182 179 156 162 163 160 175 169 167 167 167 166 174 171 170 189 204 248 298 316 42 30 11
149 156 167 177 177 165 170 168 169 163 183 174 159 167 165 167 180 163 160 164 168 169 178 182 192 195 223 259 291 293 149 31 345
186 164 179 179 183 163 167 170 171 171 184 174 166 175 166 171 158 160 159 167 171 173 180 185 187 211 224 231 289 27 339 340 321
231 182 177 176 178 164 168 169 174 173 180 162 163 166 162 153 152 160 169 169 176 181 191 205 220 244 261 280 282 251 319 327 325
307 229 180 176 172 166 167 166 172 178 165 158 159 164 146 150 158 168 170 175 179 186 211 229 242 262 287 290 288 276 284 301 314
338 306 259 175 169 163 164 167 169 162 151 159 165 153 151 163 175 173 176 183 194 203 213 226 249 258 266 275 285 254 252 286 304
307 271 268 173 175 164 160 156 150 150 148 150 152 157 162 167 174 177 183 191 197 213 225 236 258 266 258 266 275 279 276 283 297
320 343 250 162 171 168 165 148 146 144 141 149 155 151 157 165 170 175 183 190 196 205 223 264 276 262 277 256 250 261 264 274 290
40 43 41 62 78 48 82 132 131 127 137 143 145 146 153 176 183 178 183 177 191 214 214 250 256 252 256 256 237 232 247 255 285
59 50 63 73 80 79 98 344 108 125 130 142 148 158 159 168 196 193 178 189 198 216 229 240 255 243 232 255 213 219 223 221 243
134 105 100 106 102 93 91 100 93 137 164 156 150 152 150 169 186 202 201 217 222 221 238 236 238 250 268 279 214 208 209 208 216
64 52 114 106 116 122 117 132 154 182 171 140 135 170 169 180 196 203 218 227 251 273 287 280 293 303 331 348 18 87 135 208 214
142 108 112 108 113 116 129 143 151 147 142 153 170 183 185 204 212 198 212 221 234 253 244 246 261 272 269 271 270 279 282 281 278
78 67 91 110 119 125 130 135 143 156 165 170 174 208 205 168 202 277 286 222 248 280 257 244 249 252 248 245 244 255 260 266 270